CDT,Max TemperatureF,Mean TemperatureF,Min TemperatureF,Max Dew PointF,MeanDew PointF,Min DewpointF,Max Humidity, Mean Humidity, Min Humidity, Max Sea Level PressureIn, Mean Sea Level PressureIn, Min Sea Level PressureIn, Max VisibilityMiles, Mean VisibilityMiles, Min VisibilityMiles, Max Wind SpeedMPH, Mean Wind SpeedMPH, Max Gust SpeedMPH,PrecipitationIn, CloudCover, Events, WindDirDegrees
2012-10-1,71,59,44,50,43,36,75,56,36,29.98,29.93,29.85,10,10,10,22,8,28,0.00,1,,320
2012-10-2,74,54,34,48,39,32,96,64,29,29.98,29.91,29.82,10,10,7,10,3,,0.00,0,,176
2012-10-3,77,57,37,44,39,34,91,56,24,29.90,29.85,29.78,10,10,7,14,4,20,0.00,0,,137
2012-10-4,62,51,40,45,36,32,87,68,42,30.19,30.00,29.74,10,10,7,32,19,44,0.00,6,,266
2012-10-5,46,38,31,34,29,27,87,68,53,30.19,30.17,30.15,10,10,10,24,16,33,0.00,4,,284
2012-10-6,46,36,24,32,27,21,87,69,45,30.30,30.25,30.18,10,10,4,17,11,25,0.00,5,,312
2012-10-7,56,38,19,28,23,18,91,61,28,30.24,30.05,29.84,10,10,4,15,4,23,0.00,0,,223
2012-10-8,64,48,33,43,33,23,84,58,38,29.84,29.71,29.58,10,10,10,18,6,25,0.00,4,Rain,207
2012-10-9,49,39,29,41,34,23,93,67,47,30.01,29.84,29.73,10,10,10,25,9,37,0.00,6,,275
2012-10-10,54,40,26,33,29,23,95,61,35,30.11,30.00,29.80,10,10,7,16,7,24,0.00,4,,243
2012-10-11,54,44,32,37,30,21,82,57,34,30.40,30.12,29.78,10,10,10,20,12,25,0.00,3,,323
2012-10-12,54,36,19,28,22,16,94,58,27,30.43,30.29,29.97,10,10,10,16,6,22,0.00,2,,142
2012-10-13,55,52,49,54,47,27,100,87,39,29.97,29.78,29.67,10,6,1,17,8,25,0.01,8,Rain-Thunderstorm,140
2012-10-14,60,50,40,49,44,35,100,82,53,29.91,29.81,29.73,10,8,3,21,8,26,0.00,4,,328
2012-10-15,62,46,29,43,38,29,100,70,42,29.96,29.87,29.69,10,10,4,9,5,,0.00,1,,184
2012-10-16,69,59,49,52,47,43,88,66,48,29.68,29.50,29.36,10,10,10,12,6,20,0.00,1,,138
2012-10-17,60,52,44,53,47,43,100,81,61,29.35,29.24,29.09,10,10,3,29,10,34,0.00,6,Rain,231
2012-10-18,49,45,41,49,44,41,100,93,81,29.38,29.26,29.17,10,8,1,16,9,22,0.02,8,Rain,298
2012-10-19,51,48,44,50,48,44,100,97,89,29.75,29.60,29.39,10,8,1,17,5,24,0.10,8,Rain,308
2012-10-20,51,46,41,47,45,41,100,95,84,29.81,29.77,29.74,10,8,1,10,4,,0.00,6,,177
2012-10-21,64,53,42,52,47,42,98,84,63,29.91,29.80,29.75,10,9,7,14,8,18,0.00,0,,132
2012-10-22,60,54,48,50,47,44,93,78,64,29.94,29.90,29.85,10,10,10,22,11,28,0.00,4,,34
2012-10-23,61,58,54,61,57,49,100,95,82,29.83,29.74,29.67,10,5,0,13,9,16,0.01,8,Fog-Rain-Thunderstorm,134
2012-10-24,55,50,46,56,50,42,100,96,84,29.88,29.82,29.79,10,6,0,21,7,28,0.00,8,Fog-Rain,333
2012-10-25,46,40,34,43,35,28,100,89,75,30.18,29.92,29.75,10,8,1,26,18,31,0.29,8,Rain-Snow-Thunderstorm,308
2012-10-26,41,37,33,32,30,27,92,79,65,30.37,30.31,30.18,10,10,10,18,12,25,0.00,6,,268
2012-10-27,42,34,26,31,28,26,98,79,55,30.35,30.32,30.28,10,10,10,12,4,17,0.00,3,,225
2012-10-28,46,37,28,34,30,25,89,77,57,30.31,30.28,30.24,10,10,10,12,4,17,0.00,6,,137
2012-10-29,49,40,30,34,30,26,85,72,52,30.28,30.24,30.21,10,10,10,16,8,23,0.00,4,,121
2012-10-30,49,39,29,35,31,24,88,74,57,30.21,30.15,30.07,10,10,10,13,6,,0.00,3,,41
2012-10-31,54,39,24,34,27,22,94,70,39,30.09,30.01,29.93,10,10,10,8,1,,0.00,3,,293